sat.trackr.live / text

‹ back to catalog

STARLINK-30533

NORAD 58037 · 2023-156K

PAYLOAD ACTIVE UNKNOWN

§ Identity

Operator
Country
US
Launch date
2023-10-09
Launch site
AFWTR
Launch vehicle
Mass (kg)
RCS (m²)

Purposes: comms

External: N2YO · Heavens-Above · Gunter

§ Orbital elements

Epoch: 2026-05-24T11:07:23.977344Z

Period
94.08 min
Inclination
53.1582°
Eccentricity
0.0003416
Mean motion
15.30553398 rev/d
Perigee alt
471.8 km
Apogee alt
476.5 km
Semi-major
6,852.3 km
B*
6.4086e-3
RAAN
176.2398°
Arg perigee
182.2164°
Mean anomaly
177.8823°
Rev number
14,663

§ Raw data

STARLINK-305331 58037U 23156K   26144.46347196  .00196691  00000+0  64086-2 0  99942 58037  53.1582 176.2398 0003416 182.2164 177.8823 15.30553398146631

JSON: /api/v1/satellites/58037 · /tle

For live sub-satellite position, see the globe view (requires WebGL).

§ Visibility from observer

Set your observer location to see the next 7 days of passes ≥ 10°. The values pass through the URL so the page stays shareable.

No JS? Fill the form by hand. The geolocation button needs JavaScript.